Flight Track Log - Related Links

Times and Time Zones

All times are in EDT time to prevent confusion due to time zone crossing. See the TYR844 flight status page for this flight to view local times or setup timezone preferences in your user account.

Time Position Orientation Groundspeed Altitude Reporting Facility
EDT Latitude Longitude Course Direction KTS MPH feet Rate Location/Type
Sun 10:51:00 PM 43.1946 18.9555 343° North  Level Estimated
Sun 10:52:00 PM 43.2933 18.9117 342° North  Level Estimated
Sun 10:53:00 PM 43.3920 18.8678 342° North  Level Estimated
Sun 10:54:00 PM 43.4907 18.8237 342° North  Level Estimated
Sun 10:55:00 PM 43.5894 18.7795 342° North  Level Estimated
Sun 10:56:00 PM 43.6881 18.7351 342° North  Level Estimated
Sun 10:57:00 PM 43.7867 18.6906 342° North  Level Estimated
Sun 10:58:00 PM 43.8853 18.6459 342° North  Level Estimated
Sun 10:59:00 PM 43.9839 18.6011 342° North  Level Estimated
Sun 11:00:00 PM 44.0825 18.5561 342° North  Level Estimated
Sun 11:01:00 PM 44.1811 18.5110 342° North  Level Estimated
Sun 11:02:00 PM 44.2797 18.4657 342° North  Level Estimated
Sun 11:03:00 PM 44.3782 18.4203 342° North  Level Estimated
Sun 11:04:00 PM 44.4767 18.3747 342° North  Level Estimated
Sun 11:05:00 PM 44.5752 18.3290 342° North  Level Estimated
Sun 11:06:00 PM 44.6737 18.2831 342° North  Level Estimated
Sun 11:07:00 PM 44.7722 18.2371 342° North  Level Estimated
Sun 11:08:00 PM 44.8706 18.1909 342° North  Level Estimated
Sun 11:09:00 PM 44.9690 18.1446 342° North  Level Estimated
Sun 11:10:00 PM 45.0674 18.0980 342° North  Level Estimated
Sun 11:11:00 PM 45.1658 18.0514 342° North  Level Estimated
Sun 11:12:00 PM 45.2642 18.0045 341° North  Level Estimated
Sun 11:13:00 PM 45.3625 17.9575 341° North  Level Estimated
Sun 11:14:00 PM 45.4609 17.9104 341° North  Level Estimated
Sun 11:15:00 PM 45.5592 17.8631 341° North  Level Estimated
Sun 11:16:00 PM 45.6575 17.8156 341° North  Level Estimated
Sun 11:17:00 PM 45.7557 17.7679 341° North  Level Estimated
Sun 11:18:00 PM 45.8540 17.7201 341° North  Level Estimated
Sun 11:19:00 PM 45.9522 17.6721 341° North  Level Estimated
Sun 11:20:00 PM 46.0504 17.6239 341° North  Level Estimated
Sun 11:21:00 PM 46.1486 17.5756 341° North  Level Estimated
Sun 11:22:00 PM 46.2468 17.5271 341° North  Level Estimated
Sun 11:23:00 PM 46.3450 17.4784 341° North  Level Estimated
Sun 11:24:00 PM 46.4431 17.4295 341° North  Level Estimated
Sun 11:25:00 PM 46.5412 17.3805 341° North  Level Estimated
Sun 11:26:00 PM 46.6393 17.3313 341° North  Level Estimated
Sun 11:27:00 PM 46.7374 17.2819 341° North  Level Estimated
Sun 11:28:00 PM 46.8354 17.2323 341° North  Level Estimated
Sun 11:29:00 PM 46.9334 17.1826 341° North  Level Estimated
Sun 11:30:00 PM 47.0314 17.1326 341° North  Level Estimated
Sun 11:31:00 PM 47.1294 17.0825 341° North  Level Estimated
Sun 11:32:00 PM 47.2274 17.0322 341° North  Level Estimated
Sun 11:33:00 PM 47.3253 16.9817 341° North  Level Estimated
Sun 11:34:00 PM 47.4232 16.9310 341° North  Level Estimated
Sun 11:35:00 PM 47.5211 16.8802 341° North  Level Estimated
Sun 11:36:00 PM 47.6190 16.8291 341° North  Level Estimated
Sun 11:37:00 PM 47.7168 16.7779 341° North  Level Estimated
Sun 11:38:00 PM 47.8147 16.7264 341° North  Level Estimated
Sun 11:39:00 PM 47.9125 16.6748 341° North  Level Estimated
Sun 11:40:00 PM 48.0102 16.6230 340° North  Level Estimated
Sun 11:41:00 PM 48.1080 16.5709 340° North  Level Estimated
Sun 11:42:00 PM 48.1103 16.5697 340° North  Level Estimated
Sun 11:43:00 PM 48.1103 16.5697 North  Level Estimated
Sun 11:44:00 PM 48.1103 16.5697 North  Level Estimated
Sun 11:45:00 PM 48.1103 16.5697 North  Level Estimated
Sun 11:46:00 PM 48.1103 16.5697 North  Level Estimated
Sun 11:47:00 PM 48.1103 16.5697 North  Level Estimated
Sun 11:48:00 PM 48.1103 16.5697 North  Level Estimated
Sun 11:49:00 PM 48.1103 16.5697 North  Level Estimated
Sun 11:50:00 PM 48.1103 16.5697 North  Level Estimated
Sun 11:51:00 PM 48.1103 16.5697 North  Level Estimated
Sun 11:52:00 PM 48.1103 16.5697 North  Level Estimated
Sun 11:53:00 PM 48.1103 16.5697 North  Level Estimated
Sun 11:54:00 PM 48.1103 16.5697 North  Level Estimated
Sun 11:55:00 PM 48.1103 16.5697 North  Level Estimated
Sun 11:56:00 PM 48.1103 16.5697 North  Level Estimated

Login

Don't have an account? Register now (free) for customized features, flight alerts, and more!